www.pogodaiklimat.ru

Погода и климат >> Архив погоды >> Антарктида >> SANAE


ПОГОДА в SANAE

  • Прогноз погоды в SANAE
  • Монитор погоды в SANAE
  • Климат города

АРХИВ ПОГОДЫ в SANAE

Время (UTC), дата Ветер
(напр.,м/с)
 
Видим.   Явления Облачность Т
(С)
Тd
(С)
f
(%)
Тe
(С)
Тes
(С)
Комфортность P
(гПа)
Po
(гПа)
Тmin
(С)
Tmax
(С)
R
(мм)
R24
(мм)
S
(см)
03 16.07 В 24 н/о н/о -27.3 983.1 874.7 -29.0 -23.4
06 16.07 В 26 <100 м сильный снег 10/0 300 м
[As op]
-24.0 979.1 872.5 -29.0
09 16.07 В 22 <100 м сильный снег 10/0 300 м
[As op]
-21.5 980.3 874.5 -29.0 -21.5
12 16.07 В 29 <100 м сильный снег 10/0 300 м
[As op]
-20.7 977.4 872.3 -29.0 -20.1
15 16.07 В 32 н/о н/о -19.9 975.8 871.1 -20.7 -19.1
18 16.07 В 31 <100 м сильный снег 10/0 300 м
[As op]
-19.5 975.7 871.2 -20.7 -18.8
21 16.07 СВ 25 н/о н/о -20.1 976.4 871.6 -20.7 -18.8
00 17.07 СВ 28 н/о н/о -22.3 976.1 870.5 -23.0 -18.8
03 17.07 В 25 н/о н/о -21.1 975.7 870.6 -23.0 -18.8
06 17.07 В 23 <100 м снег 10/0 300 м
[As op]
-19.7 973.3 869.0 -23.0
09 17.07 В 26 <100 м снег 10/0 300 м
[As op]
-17.2 970.7 867.6 -23.0 -17.2
12 17.07 В 23 <100 м снег 10/0 300 м
[As op]
-16.3 968.6 866.1 -23.0 -16.3
15 17.07 В 15 н/о н/о -14.9 966.5 864.7 -16.9 -14.2
18 17.07 ЮВ 7 >70 км 4/3 300 м
[Sc As op]
-13.8 964.2 863.1 -16.9 -13.6
21 17.07 ЮВ 9 н/о н/о -12.7 961.8 861.3 -16.9 -12.6
00 18.07 СВ 2 н/о н/о -12.4 961.2 860.9 -16.9 -12.0
03 18.07 ЮЗ 3 н/о н/о -16.1 963.1 861.2 -16.9 -12.0
06 18.07 СВ 4 >70 км 5/5 600 м
[Sc]
-14.5 963.3 862.0 -16.9
09 18.07 Ю 1 >70 км 6/6 600 м
[Sc]
-13.9 964.0 862.9 -16.9 -13.9
12 18.07 З 5 5000 м слабый снег 10/3 300 м
[Sc As op]
-18.6 966.8 863.6 -18.6 -13.9
15 18.07 С 1 н/о н/о -19.1 968.1 864.6 -19.2 -13.9
18 18.07 СЗ 1 30 км 9/4 300 м
[Sc As op]
-20.4 970.7 866.4 -20.4 -13.9
21 18.07 СЗ 1 н/о н/о -21.6 972.6 867.6 -21.8 -13.9
00 19.07 Ю 1 н/о н/о -21.6 973.9 868.8 -22.0 -13.9
03 19.07 ЮВ 2 н/о н/о -22.3 975.3 869.8 -22.4 -13.9
06 19.07 В 7 н/о н/о -22.4 976.6 870.9 -23.2
09 19.07 В 8 >70 км 6/5 300 м
[Sc]
-22.6 977.9 872.0 -23.2 -22.0
12 19.07 В 11 20 км позёмок 10/5 300 м
[Sc As op]
-24.1 980.2 873.4 -25.2 -22.0
15 19.07 ЮВ 12 н/о н/о -25.8 982.6 874.9 -25.8 -22.0
18 19.07 ЮВ 13 20 км позёмок {метель} 10/3 300 м
[Sc As op]
-25.9 984.7 876.7 -26.2 -22.0
21 19.07 ЮВ 14 н/о н/о -26.7 986.3 877.8 -26.9 -22.0
00 20.07 ЮВ 11 н/о н/о -26.4 988.6 880.0 -27.6 -22.0
03 20.07 ЮВ 11 н/о н/о -24.5 990.9 882.8 -27.6 -22.0
06 20.07 ЮВ 10 >70 км позёмок {метель} 6/5 300 м
[Sc]
-24.4 992.8 884.5 -27.6
09 20.07 ЮВ 10 >70 км позёмок {метель} 6/5 600 м
[Sc]
-25.0 994.0 885.3 -27.6 -22.0
12 20.07 ЮВ 11 >70 км сильный позёмок {метель} 6/5 300 м
[Sc Ac As]
-26.2 994.5 885.3 -27.6 -22.0
15 20.07 ЮВ 10 н/о н/о -26.9 995.1 885.5 -27.3 -22.0
18 20.07 ЮВ 6 >70 км 4/3 600 м
[Sc Ac As]
-27.1 994.8 885.2 -27.4 -22.0
21 20.07 ЮВ 7 н/о н/о -27.4 994.8 885.1 -27.9 -22.0
00 21.07 ЮВ 10 н/о н/о -28.0 994.5 884.5 -28.4 -22.0
03 21.07 ЮВ 8 н/о н/о -28.5 994.2 884.1 -28.9 -22.0
06 21.07 ЮВ 9 >70 км позёмок {метель} 4/4 300 м
[Sc]
-28.7 993.7 883.5 -29.7
09 21.07 ЮВ 8 н/о н/о -28.8 993.8 883.6 -29.7 -27.7
12 21.07 ЮВ 8 >70 км 4/3 300 м
[Sc Ac As]
-28.8 994.2 883.9 -29.7 -27.7
15 21.07 ЮВ 8 н/о н/о -28.5 993.6 883.5 -29.1 -24.0
18 21.07 ЮВ 6 >70 км 4/4 300 м
[Sc Ac As]
-28.3 994.6 884.5 -29.8 -24.0
21 21.07 ЮВ 11 н/о н/о -28.9 994.5 884.2 -29.8 -24.0
00 22.07 Ю 2 н/о н/о -24.8 993.6 885.1 -29.8 -24.0
03 22.07 ЮВ 9 н/о н/о -26.8 994.2 884.8 -29.8 -22.8
06 22.07 Ю 2 >70 км 3/3 300 м
[Sc]
-23.9 994.7 886.4 -29.8
09 22.07 В 2 н/о н/о -22.9 995.1 887.2 -29.8 -22.3
12 22.07 ЮЗ 1 н/о н/о -21.7 995.5 888.0 -29.8 -21.3
15 22.07 В 2 н/о н/о -21.7 995.1 887.7 -22.4 -20.9
18 22.07 штиль 0 >70 км 9/9 300 м
[Sc]
-21.8 995.9 888.3 -22.5 -20.8
21 22.07 штиль 0 н/о н/о -21.0 995.4 888.2 -22.5 -20.8
00 23.07 штиль 0 н/о н/о -21.3 994.9 887.6 -22.5 -20.2

 

Местоположение метеостанции SANAE (Антарктида): широта -71.70 долгота -2.80 высота над уровнем моря 817 м.

В архиве по умолчанию представлена погода в SANAE за последнюю неделю. Архивные данные за месяц целиком и за предыдущие месяцы, начиная с января 2011 года, Вы можете получить, выбрав интересующий диапазон дат из раскрывающегося списка и нажав кнопку "Ввод!".


*Определитесь, кто Вы:
робот инопланетянин человек

Внимание! Время в таблицах - всемирное. Для получения местного времени необходимо прибавить поправку, которая в SANAE равна 0 ч.

Смотрите также архив погоды в соседних городах и на ближайших метеорологических станциях:

Погода в Troll (Антарктида) (183 км)
Погода в Neumayer Station (Антарктида) (227 км)
Погода в Soerasen (Антарктида) (257 км)
Погода в Kohnen Ep9 (Антарктида) (378 км)
Погода в Nordenskiold Base (Антарктида) (386 км)
Погода в Maitri (Антарктида) (530 км)
Погода в Novolazarevskaja (Антарктида) (532 км)
Погода в Halley (Антарктида) (851 км)
Погода в Base Belgrano Ii (Антарктида) (1130 км)
Погода в Relay Station (Антарктида) (1487 км)

Пояснения к столбцам:

Ветер - указаны скорость ветра в м/с - средняя за 10 мин, порывы в срок и между сроками (в фигурных скобках) и направление, откуда дует ветер: С - северный, СВ - северо-восточный, В - восточный, ЮВ - юго-восточный, Ю - южный, ЮЗ - юго-западный, З - западный, СЗ - северо-западный.
Видимость - горизонтальная дальность видимости в метрах или километрах. При видимости от 1 до 10 км при отсутствии осадков обычно наблюдается дымка, при ухудшении видимости до 1 км и менее - туман. В сухую погоду видимость может ухудшаться дымом, пылью или мглою.
Явления - указаны атмосферные явления, наблюдавшиеся в срок или в последний час перед сроком; фигурными скобками обозначены явления, наблюдавшиеся между сроками (за 1-3 часа до срока); квадратными скобками обозначены град или гололедные отложения с указанием их диаметра в мм.
Облачность - указаны через наклонную черту общая и нижняя облачность в баллах и высота нижней границы облаков в метрах; квадратными скобками обозначены формы облаков: Ci - перистые, Cs - перисто-слоистые, Cc - перисто-кучевые, Ac - высококучевые, As - высокослоистые, Sc - слоисто-кучевые, Ns - слоисто-дождевые, Cu - кучевые, Cb - кучево-дождевые. Подробнее классификацию облаков см. в Атласе облаков (PDF).
T - Температура воздуха - температура, измеренная на высоте 2 м над землей.
Td - Температура точки росы - температура, при понижении до которой содержащийся в воздухе водяной пар достигнет насыщения.
f - Относительная влажность воздуха - влажноcть воздуха, измеренная на высоте 2 м над землей.
Te - Эффективная температура - температура, которую ощущает одетый по сезону человек в тени. Характеристика душности погоды. При расчете учитывается влияние влажности воздуха и скорости ветра на теплоощущения человека.
Tes - Эффективная температура на солнце - температура, которую ощущает человек, с поправкой на солнечный нагрев. Характеристика знойности погоды. Зависит от высоты солнца над горизонтом, облачности и скорости ветра. Ночью, в пасмурную погоду, а также при ветре 12 м/с и более поправка равна нулю.
P - Атмосферное давление - приведенное к уровню моря атмосферное давление.
Po - Атмосферное давление - измеренное на уровне метеостанции атмосферное давление.
Tmin - Минимальная температура - минимум температуры воздуха на высоте 2 м над землей.
Tmax - Максимальная температура - максимум температуры воздуха на высоте 2 м над землей.
R - Количество осадков - Количество выпавших осадков за период времени, мм. При наведении курсора мыши на число - период времени, за который выпало указанное количество осадков.
R24 - Количество осадков - Количество выпавших осадков за 24 часа, мм.
S - Снежный покров - Высота снежного покрова, см. При наведении курсора мыши на число - состояние снежного покрова и степень покрытия местности в баллах.